Tracking 29088 objects as of 14-Jul-2024
HD Live streaming from Space Station
objects crossing your sky now

ORESAT0

Track ORESAT0 now!
10-day predictions
ORESAT0 is classified as:


NORAD ID: 52017
Int'l Code: 2022-026K
Perigee: 390.7 km
Apogee: 410.2 km
Inclination: 97.5 °
Period: 92.4 minutes
Semi major axis: 6771 km
RCS: Unknown
Launch date: March 15, 2022
Source: United States (US)
Launch site: Kodiak Island, Alaska (KODAK)

Uplink (MHz):
Downlink (MHz): 436.500/2425.000
Beacon (MHz): 436.500
Mode: 9k6FSK 96kGMSK 1M_DPSK CW
Call sign: KJ7SAT
Status: Active

Your satellite tracking list
Your tracking list is empty




NASA's NSSDC Master Catalog

Two Line Element Set (TLE):
1 52017U 22026K   24195.77274153  .00099984  00000-0  13141-2 0  9995
2 52017  97.4922 211.3437 0014387 121.7442 238.5217 15.58040000129840
Source of the keplerian elements: AMSAT